Hilton Head Island, SC

8:35 AM EST on November 19, 2017 (GMT -0500)
Hilton Head

Weather History for KHXD - July, 2013

Change the Weather History Date:

Wednesday, July 31, 2013

  Actual Average Record
Temperature  
Mean Temperature 80 °F -  
Max Temperature 86 °F 89 °F 98 °F (1961)
Min Temperature 73 °F 72 °F 64 °F (1960)
Cooling Degree Days 14    
Growing Degree Days 30 (Base 50)    
Moisture  
Dew Point 75 °F    
Average Humidity 91    
Maximum Humidity 100    
Minimum Humidity 70    
Precipitation  
Precipitation 0.00 in - - ()
Sea Level Pressure  
Sea Level Pressure 30.10 in    
Wind  
Wind Speed 3 mph (South)    
Max Wind Speed 12 mph    
Max Gust Speed -    
Visibility 7 miles    
Events Rain , Thunderstorm    
Averages and records for this station are not official NWS values.
T = Trace of Precipitation, MM = Missing Value Source: NWS Daily Summary

Daily Weather History Graph

Daily Weather History Graph

Search for Another Location

Airport or City:

Trip Planner

Search our weather history database for the weather conditions in past years. The results will help you decide how hot, cold, wet, or windy it might be!

Date:

Astronomy

Jul. 31, 2013 Rise Set
Actual Time 6:37 AM EDT 8:20 PM EDT
Civil Twilight 6:10 AM EDT 8:47 PM EDT
Nautical Twilight 5:38 AM EDT 9:19 PM EDT
Astronomical Twilight 5:04 AM EDT 9:53 PM EDT
Moon 1:31 AM EDT (7/31) 3:34 PM EDT (7/31)
Length of Visible Light 14h 36m
Length of Day
13h 43m
Waning Crescent, 32% of the Moon is Illuminated
Jul 31
Waning Crescent
Aug 6
New
Aug 14
First Quarter
Aug 20
Full
Aug 28
Last Quarter

Hourly Weather History & Observations

Time (EDT) Temp. Heat Index Dew Point Humidity Pressure Visibility Wind Dir Wind Speed Gust Speed Precip Events Conditions
12:15 AM 78.8 °F - 78.8 °F 100% 30.15 in 10.0 mi SSW 4.6 mph - 0.00 in   Clear
12:35 AM 78.8 °F - 78.8 °F 100% 30.14 in 10.0 mi South 4.6 mph - 0.00 in   Clear
12:55 AM 78.8 °F - 77.0 °F 94% 30.14 in 6.0 mi Calm Calm - 0.00 in   Clear
1:15 AM 78.8 °F - 77.0 °F 94% 30.14 in 8.0 mi Calm Calm - 0.00 in   Clear
1:35 AM 78.8 °F - 77.0 °F 94% 30.14 in 7.0 mi SSW 3.5 mph - 0.00 in   Clear
1:55 AM 78.8 °F - 78.8 °F 100% 30.13 in 7.0 mi South 3.5 mph - 0.00 in   Clear
2:15 AM 78.8 °F - 77.0 °F 94% 30.13 in 6.0 mi SSW 3.5 mph - 0.00 in   Clear
2:55 AM 78.8 °F - 77.0 °F 94% 30.12 in 5.0 mi Calm Calm - 0.00 in   Clear
3:15 AM 77.0 °F - 77.0 °F 100% 30.11 in 4.0 mi Calm Calm - 0.00 in   Clear
3:35 AM 77.0 °F - 77.0 °F 100% 30.12 in 5.0 mi Calm Calm - 0.00 in   Clear
3:55 AM 78.8 °F - 77.0 °F 94% 30.11 in 10.0 mi SSW 3.5 mph - 0.00 in   Clear
4:15 AM 77.0 °F - 77.0 °F 100% 30.11 in 5.0 mi Calm Calm - 0.00 in   Clear
4:35 AM 77.0 °F - 75.2 °F 94% 30.11 in 5.0 mi Calm Calm - 0.00 in   Clear
4:55 AM 77.0 °F - 75.2 °F 94% 30.11 in 4.0 mi Calm Calm - 0.00 in   Clear
5:15 AM 75.2 °F - 75.2 °F 100% 30.11 in 5.0 mi Calm Calm - 0.00 in   Clear
5:35 AM 75.2 °F - 75.2 °F 100% 30.11 in 3.0 mi Calm Calm - 0.00 in   Clear
5:55 AM 75.2 °F - 75.2 °F 100% 30.12 in 4.0 mi Calm Calm - 0.00 in   Clear
6:15 AM 75.2 °F - 75.2 °F 100% 30.12 in 4.0 mi Calm Calm - 0.00 in   Clear
6:35 AM 75.2 °F - 75.2 °F 100% 30.12 in 5.0 mi Calm Calm - 0.00 in   Clear
6:50 AM 77.0 °F - 71.6 °F 83% 30.13 in 7.0 mi Calm Calm - N/A   Scattered Clouds
7:50 AM 78.8 °F - 75.2 °F 89% 30.12 in 10.0 mi Calm Calm - N/A   Overcast
8:50 AM 78.8 °F - 75.2 °F 89% 30.12 in 10.0 mi Calm Calm - N/A   Overcast
9:50 AM 82.4 °F 88.2 °F 73.4 °F 74% 30.15 in 10.0 mi Calm Calm - N/A   Overcast
10:50 AM 86.0 °F 95.1 °F 75.2 °F 70% 30.13 in 10.0 mi Calm Calm - N/A   Mostly Cloudy
11:47 AM 84.2 °F 90.9 °F 73.4 °F 70% 30.13 in 10.0 mi SE 5.8 mph - N/A   Scattered Clouds
12:50 PM 84.2 °F 90.9 °F 73.4 °F 70% 30.13 in 10.0 mi South 6.9 mph - N/A   Scattered Clouds
1:50 PM 84.2 °F 92.3 °F 75.2 °F 74% 30.10 in 10.0 mi SSE 5.8 mph - N/A   Partly Cloudy
2:47 PM 84.2 °F 92.3 °F 75.2 °F 74% 30.07 in 10.0 mi SSE 11.5 mph - N/A   Scattered Clouds
3:50 PM 82.4 °F 88.2 °F 73.4 °F 74% 30.03 in 10.0 mi SE 5.8 mph - N/A   Scattered Clouds
4:25 PM 82.4 °F 88.2 °F 73.4 °F 74% 30.05 in 10.0 mi SSE 6.9 mph - N/A Thunderstorm Thunderstorm
4:50 PM 82.4 °F 88.2 °F 73.4 °F 74% 30.06 in 10.0 mi SSE 5.8 mph - N/A Thunderstorm Thunderstorm
5:50 PM 78.8 °F - 75.2 °F 89% 30.06 in 5.0 mi SSE 8.1 mph - N/A Rain , Thunderstorm Light Thunderstorms and Rain
6:10 PM 78.8 °F - 75.2 °F 89% 30.07 in 2.0 mi SSW 10.4 mph - N/A Rain , Thunderstorm Thunderstorms and Rain
6:50 PM 75.2 °F - 71.6 °F 89% 30.08 in 2.0 mi SW 10.4 mph - N/A Rain , Thunderstorm Thunderstorms and Rain
7:50 PM 73.4 °F - 69.8 °F 88% 30.07 in 2.0 mi SSE 4.6 mph - N/A Rain Rain
8:20 PM 75.2 °F - 71.6 °F 89% 30.07 in 5.0 mi South 8.1 mph - N/A   Mostly Cloudy
9:15 PM 73.4 °F - 73.4 °F 100% 30.06 in 10.0 mi South 3.5 mph - 0.00 in   Clear
9:35 PM 73.4 °F - 73.4 °F 100% 30.06 in 5.0 mi South 3.5 mph - 0.00 in   Clear
9:55 PM 73.4 °F - 73.4 °F 100% 30.06 in 4.0 mi Calm Calm - 0.00 in   Clear
10:15 PM 73.4 °F - 73.4 °F 100% 30.06 in 3.0 mi Calm Calm - 0.00 in   Clear
10:35 PM 73.4 °F - 73.4 °F 100% 30.06 in 5.0 mi Calm Calm - 0.00 in   Clear
10:55 PM 75.2 °F - 75.2 °F 100% 30.06 in 6.0 mi South 4.6 mph - 0.00 in   Clear
11:15 PM 75.2 °F - 75.2 °F 100% 30.05 in 8.0 mi South 5.8 mph - 0.00 in   Clear
11:35 PM 75.2 °F - 75.2 °F 100% 30.05 in 10.0 mi Calm Calm - 0.00 in   Partly Cloudy
11:55 PM 75.2 °F - 75.2 °F 100% 30.05 in 5.0 mi Calm Calm - 0.00 in   Mostly Cloudy